Regional Weather Roundup
Issued by NWS

Home | Current Version | Previous Version | Graphics & Text | Print | Product List | Glossary On
Versions: 1 2 3 4 5 6 7 8 9 10 11 12 13 14 15 16 17 18 19 20 21 22 23 24 25 26 27 28 29 30 31 32 33 34 35 36 37 38 39 40 41 42 43 44 45 46 47 48 49 50
000
ASUS43 KOAX 060510
RWRNE

WEATHER ROUNDUP FOR NEBRASKA
NATIONAL WEATHER SERVICE OMAHA NE
1100 PM CST THU MAR 05 2015

NOTES: SATELLITE DATA IS BEING USED TO AUGMENT CLOUD COVER ABOVE
       12000 FEET.
       "FAIR" INDICATES FEW OR NO CLOUDS BELOW 12,000 FEET WITH NO
       SIGNIFICANT WEATHER AND/OR OBSTRUCTIONS TO VISIBILITY.

  * THESE STATIONS DO NOT REPORT WEATHER SUCH AS RAIN...SNOW OR FOG.

NEZ001>004-019>022-054>056-060600-
NEBRASKA PANHANDLE

CITY           SKY/WX    TMP DP  RH WIND       PRES   REMARKS
SCOTTSBLUFF    CLEAR     27  18  69 N5        30.23S WCI  22
ALLIANCE       CLEAR     22  16  78 W12       30.21R WCI  10
CHADRON        PTCLDY    29  20  69 W9        30.20R WCI  20
KIMBALL        PTCLDY    28  20  70 W9        30.22S WCI  19
SIDNEY         CLEAR     29  19  66 W12       30.25R WCI  19
$$

NEZ057>060-069>072-079>082-060600-
SOUTHWEST NEBRASKA

CITY           SKY/WX    TMP DP  RH WIND       PRES   REMARKS
NORTH PLATTE   CLEAR     20  10  65 NW6       30.23S WCI  12
IMPERIAL         N/A     30  14  51 W9        30.25S WCI  22
LEXINGTON      CLEAR     21  11  64 NW6       30.22S WCI  14
MCCOOK         CLEAR     29  15  56 W8        30.25R WCI  21
OGALLALA       CLEAR     27  16  64 W3        30.24R
$$

NEZ005>010-023>029-035>040-094-060600-
NORTH CENTRAL NEBRASKA

CITY           SKY/WX    TMP DP  RH WIND       PRES   REMARKS
VALENTINE      CLEAR     29  20  69 W9        30.16S WCI  20
AINSWORTH      CLEAR     29  17  59 W9        30.16S WCI  21
BROKEN BOW     CLEAR     27  10  49 SW5       30.19S WCI  22
O`NEILL        CLEAR     29  12  49 S8        30.17S WCI  21
ORD            CLEAR     21   9  59 CALM      30.19F
THEDFORD       CLEAR     28  15  56 W7        30.20R WCI  21
$$

NEZ041-046>049-061>064-073>077-083>087-060600-
SOUTH CENTRAL NEBRASKA

CITY           SKY/WX    TMP DP  RH WIND       PRES   REMARKS
GRAND ISLAND   CLEAR     32   7  35 S15       30.22F WCI  22
AURORA         PTCLDY    27   9  47 S10       30.24F WCI  17
HASTINGS       CLEAR     32   5  32 S9G20     30.22F WCI  24
HEBRON         CLEAR     31  11  44 S10       30.29F WCI  22
HOLDREGE       CLEAR     30   8  40 SW9       30.23S WCI  21
KEARNEY *      CLEAR     30   7  37 SW14      30.22S WCI  20
YORK           MOCLDY    27  10  50 S10       30.26F WCI  17
$$

NEZ011>018-030>034-042>045-060600-
NORTHEAST NEBRASKA

CITY           SKY/WX    TMP DP  RH WIND       PRES   REMARKS
NORFOLK        MOCLDY    30   8  39 S20       30.21F WCI  17
ALBION         PTCLDY    26   6  42 SE6       30.22F WCI  20
BLAIR          PTCLDY    27   8  44 S15G22    30.29F WCI  15
COLUMBUS *     MOCLDY    30   7  37 S13       30.27F WCI  20
FREMONT        MOCLDY    27  10  49 SE12      30.30F WCI  17
TEKAMAH        MOCLDY    22   9  57 SE7       30.31F WCI  13
WAYNE          CLOUDY    26   8  46 S8        30.24F WCI  17
$$

NEZ050>053-065>068-078-088>093-060600-
SOUTHEAST NEBRASKA

CITY           SKY/WX    TMP DP  RH WIND       PRES   REMARKS
LINCOLN        MOCLDY    27  11  51 S14       30.31F WCI  16
OMAHA EPPLEY   MOCLDY    25   7  46 S17       30.34F WCI  12
BEATRICE       PTCLDY    27  14  59 S13       30.32F WCI  16
FALLS CITY     CLEAR     24  10  55 S10       30.39F WCI  14
NEBRASKA CITY  PTCLDY    23   4  43 S16       30.35F WCI  10
PLATTSMOUTH    PTCLDY    24   5  43 S14       30.33F WCI  12
$$

NEZ044-045-051>053-067-060600-
OMAHA AREA

CITY           SKY/WX    TMP DP  RH WIND       PRES   REMARKS
OMAHA EPPLEY   MOCLDY    25   7  46 S17       30.34F WCI  12
BLAIR          PTCLDY    27   8  44 S15G22    30.29F WCI  15
FREMONT        MOCLDY    27  10  49 SE12      30.30F WCI  17
MILLARD        MOCLDY    25   9  50 SE10      30.33F WCI  15
OFFUTT AFB     CLEAR     24   8  50 SE12      30.33F WCI  13
PLATTSMOUTH    PTCLDY    24   5  43 S14       30.33F WCI  12
WAHOO          MOCLDY    26   9  47 S15       30.30F WCI  14
$$



USA.gov is the U.S. government's official web portal to all federal, state and local government web resources and services.